Location: Unspecified
(40.7945°N, 111.1337°W)
Time: 08:48:27
(UTC-06:00)

Vanguard 1 - Pass Details

Date: 29 June 2019
Orbit: 653 x 3830 km, 34.3° (Epoch: 16 July)

Event Time Altitude Azimuth Distance (km) Brightness Sun altitude
Rises 03:57:39 0° 257° (WSW) 7,925 14.2 -17.1°
Reaches altitude 10° 04:03:22 10° 255° (WSW) 6,743 13.8 -16.5°
Maximum altitude 04:24:02 68° 179° (S) 2,783 12.1 -14.0°
Drops below altitude 10° 04:35:44 10° 99° (E) 4,083 13.7 -12.6°
Sets 04:38:18 0° 97° (E) 4,759 14.1 -12.2°
